Location: Tel Aviv
(32.0670°N, 34.7670°E)
Time: 04:17:04
(UTC+02:00)

Vanguard 2 - Visible Passes

Search period start: 23 January 2022 00:00
Search period end: 02 February 2022 00:00
Orbit: 553 x 2936 km, 32.9° (Epoch: 22 January)

Date Brightness Start Highest point End Pass type
(mag) Time Alt. Az. Time Alt. Az. Time Alt. Az.
23 Jan 11.6 00:59:13 19° ESE 00:59:13 19° ESE 01:02:32 10° ESE visible
23 Jan 10.5 03:00:37 48° S 03:00:37 48° S 03:12:49 10° SE visible
23 Jan 11.2 05:02:00 17° WSW 05:07:49 20° SW 05:17:34 10° S visible
23 Jan 9.6 18:21:42 10° SSW 18:28:14 34° SE 18:33:30 22° E visible
23 Jan 9.5 20:28:05 10° WSW 20:34:54 60° SW 20:34:54 60° SW visible
24 Jan 11.4 01:15:57 23° ESE 01:15:57 23° ESE 01:20:17 10° ESE visible
24 Jan 10.7 03:17:21 41° SSW 03:17:21 41° SSW 03:29:38 10° SSE visible
24 Jan 11.4 05:18:44 10° WSW 05:25:02 13° SW 05:31:22 10° SSW visible
24 Jan 9.3 18:38:34 10° SW 18:45:26 45° SE 18:50:09 30° E visible
24 Jan 9.7 20:45:41 10° WSW 20:51:33 51° WSW 20:51:33 51° WSW visible
25 Jan 11.3 01:32:40 25° SE 01:32:40 25° SE 01:37:51 10° SE visible
25 Jan 10.8 03:34:04 34° SSW 03:34:04 34° SSW 03:46:04 10° SSE visible
25 Jan 9.0 18:55:42 10° SW 19:02:48 57° SSE 19:06:47 39° E visible
25 Jan 10.1 21:03:21 10° W 21:08:10 40° W 21:08:10 40° W visible
26 Jan 11.3 01:49:23 26° SE 01:49:23 26° SE 01:55:09 10° SE visible
26 Jan 11.0 03:50:48 26° SW 03:50:48 26° SW 04:01:59 10° S visible
26 Jan 8.9 19:13:03 10° WSW 19:20:20 70° SSE 19:23:23 50° E visible
26 Jan 10.4 21:21:03 10° W 21:24:46 31° W 21:24:46 31° W visible
27 Jan 11.3 02:06:06 26° SSE 02:06:06 26° SSE 02:12:10 10° SE visible
27 Jan 11.3 04:07:30 19° SW 04:07:30 19° SW 04:17:04 10° S visible
27 Jan 9.3 17:24:16 10° SSW 17:29:26 31° SE 17:37:13 10° E visible
27 Jan 8.8 19:30:32 10° WSW 19:38:01 81° SSE 19:39:58 63° E visible
27 Jan 10.7 21:38:45 10° W 21:41:20 23° W 21:41:20 23° W visible
28 Jan 11.3 02:22:47 24° SSE 02:22:47 24° SSE 02:28:51 10° SSE visible
28 Jan 11.5 04:24:10 12° SW 04:24:18 12° SW 04:30:05 10° SSW visible
28 Jan 8.9 17:41:11 10° SW 17:46:41 43° SSE 17:55:08 11° E visible
28 Jan 8.9 19:48:07 10° WSW 19:55:46 89° SSE 19:56:31 80° E visible
28 Jan 11.0 21:56:29 10° W 21:57:54 17° W 21:57:54 17° W visible
29 Jan 11.4 02:39:25 21° S 02:39:25 21° S 02:45:06 10° SSE visible
29 Jan 8.6 17:58:23 10° SW 18:04:04 57° SSE 18:11:41 16° E visible
29 Jan 8.9 20:05:45 10° W 20:13:04 82° WNW 20:13:04 82° WNW visible
29 Jan 11.2 22:14:10 10° W 22:14:27 11° W 22:14:27 11° W visible
30 Jan 11.5 02:56:02 17° S 02:56:02 17° S 03:00:44 10° S visible
30 Jan 8.4 18:15:45 10° WSW 18:21:36 71° SSE 18:28:13 21° E visible
30 Jan 9.2 20:23:25 10° W 20:29:36 64° W 20:29:36 64° W visible
31 Jan 11.6 03:12:36 13° SSW 03:12:36 13° SSW 03:15:17 10° S visible
31 Jan 8.4 18:33:16 10° WSW 18:39:15 83° SSE 18:44:45 28° E visible
31 Jan 9.5 20:41:05 10° W 20:46:08 49° W 20:46:08 49° W visible
01 Feb 8.4 18:50:50 10° W 18:56:59 88° N 19:01:17 36° E visible
01 Feb 9.9 20:58:43 10° W 21:02:39 37° W 21:02:39 37° W visible
